Theta_e
315 314 315 315 316 316 317 318 318 319 319 320 320 321 321 322 322 322 322 323 324 324 323 324 324 324 323 323 323 323 323 323 323 323 324 325 327 328 328 329 329 329 329 329 328 328 329 330 330 331 331 331 331 330 330 330 331 331 331 331 330 330 332 333 334 334 334 334 334 334 334 333 334 333 333 333 333 332 333 334 335 335 335 335 335
314 315 315 315 315 316 317 317 318 318 319 319 320 320 321 321 321 322 322 322 323 322 322 322 321 321 319 319 318 319 319 319 320 320 320 321 323 325 327 328 329 329 329 329 328 328 328 328 329 329 329 330 330 329 328 329 329 329 329 330 330 329 330 332 333 333 333 333 333 333 332 332 332 332 333 332 332 332 333 333 334 335 335 336 335
314 314 314 315 315 316 316 317 317 318 318 319 319 319 320 320 321 321 322 322 321 321 320 319 318 317 316 315 314 315 317 317 318 318 317 318 319 320 323 326 328 329 329 329 328 327 327 327 327 328 328 328 329 328 328 328 327 327 327 329 330 330 329 330 331 331 331 331 332 332 332 331 331 331 331 331 332 333 332 332 333 333 334 335 335
314 314 314 315 315 315 316 317 317 317 318 318 318 318 318 319 320 321 321 320 319 318 318 316 315 313 312 311 310 310 313 315 316 316 316 316 317 318 320 323 326 327 327 327 327 328 327 327 327 327 327 326 325 325 326 326 327 328 328 329 330 330 330 330 330 330 330 331 332 332 332 332 331 330 330 330 331 332 332 332 332 333 333 333 334
313 313 314 314 314 315 315 316 316 317 317 318 317 317 318 318 319 319 320 319 318 317 316 314 312 309 307 307 306 306 308 310 311 312 313 314 315 317 318 321 323 325 325 326 327 328 328 326 325 324 324 323 322 321 321 322 324 326 327 328 329 330 330 330 330 329 330 331 332 332 332 332 332 330 329 330 331 331 332 332 332 332 333 332 332
313 313 314 314 314 314 315 315 316 316 317 317 316 316 317 317 317 318 318 318 318 317 315 313 311 308 305 303 303 303 304 306 307 308 308 310 312 315 318 319 321 323 323 324 325 326 326 325 323 321 320 320 319 319 319 320 320 321 322 324 326 328 329 330 330 329 329 330 331 332 332 332 332 331 329 330 332 333 332 331 332 333 333 333 333
312 313 314 314 313 314 314 314 315 316 316 316 316 316 316 316 316 317 317 317 317 317 316 313 311 309 307 304 302 302 302 303 304 305 306 307 308 313 317 318 319 321 321 321 321 323 324 323 319 317 316 315 314 314 315 316 317 317 318 320 322 324 325 327 328 329 329 330 330 331 332 332 332 332 330 331 332 333 333 333 334 333 333 332 333
311 312 314 314 313 313 314 314 314 315 315 315 315 315 315 315 315 315 315 315 315 315 315 313 312 310 309 306 303 301 301 302 302 304 305 305 307 313 315 316 317 318 317 317 318 320 322 320 316 313 312 310 309 309 308 309 310 312 314 316 318 319 321 323 325 327 328 329 329 330 331 330 331 331 332 332 333 333 334 335 334 333 333 333 333
311 312 313 313 313 313 313 313 314 314 314 314 314 314 314 314 314 314 314 314 314 314 314 313 313 311 309 308 304 301 300 300 300 302 303 304 308 312 314 314 315 315 314 314 315 317 319 318 315 312 310 310 308 306 304 304 304 306 308 311 314 317 318 319 322 325 327 328 328 329 329 330 330 331 331 331 331 331 332 332 332 332 332 332 333
311 312 312 312 312 313 313 312 313 313 313 313 313 313 313 313 313 313 313 313 313 313 313 312 312 311 309 307 303 300 299 299 300 301 303 305 308 311 313 314 314 313 313 313 315 314 314 315 315 312 311 310 307 304 303 303 303 303 304 307 311 314 315 316 319 322 324 326 327 328 328 328 328 329 330 330 330 330 330 329 330 330 330 331 332
311 311 312 311 312 312 313 312 312 312 312 312 312 312 312 312 312 312 312 312 312 312 312 311 311 311 309 306 302 299 299 299 300 301 302 305 308 311 312 313 312 312 311 312 313 312 310 311 313 311 308 306 304 302 302 303 303 303 304 305 309 312 313 314 316 318 320 322 324 325 327 328 328 328 329 329 329 329 329 329 329 330 329 330 330
311 311 311 311 311 312 312 312 312 312 312 312 311 311 311 312 312 311 311 311 311 311 310 310 310 310 308 305 301 299 299 299 300 301 302 305 308 309 311 311 311 311 310 311 311 309 308 309 308 306 304 302 301 302 302 302 303 303 303 304 307 309 310 312 314 314 316 318 320 322 324 324 323 325 324 322 321 324 326 328 329 329 329 329 329
311 311 311 311 311 311 311 312 312 312 312 312 312 311 311 311 312 312 311 311 311 310 310 309 308 308 308 306 301 299 299 299 300 301 302 305 307 308 309 309 309 309 309 310 310 308 306 305 304 303 301 299 299 301 302 302 303 303 303 304 305 306 307 310 312 311 311 312 311 312 314 313 312 316 318 316 315 317 320 323 326 327 327 328 328
310 310 310 311 311 311 311 311 311 311 311 311 311 311 310 311 311 311 310 310 310 310 309 308 307 307 307 306 302 298 297 298 299 300 301 303 305 306 306 307 307 308 308 309 308 306 304 303 302 300 298 297 297 299 300 301 302 302 302 303 305 305 307 310 311 310 309 308 306 306 308 308 308 311 314 314 313 313 315 318 321 323 325 326 326
309 310 310 310 310 310 310 310 310 310 310 310 310 309 309 309 310 310 309 309 309 309 309 308 306 305 306 306 304 299 297 296 296 297 299 301 303 304 304 305 306 307 307 307 306 304 302 301 300 298 296 296 296 296 298 299 300 301 301 302 302 303 305 307 306 305 305 305 304 304 305 306 307 308 310 311 311 311 312 313 316 319 322 324 325
309 309 309 309 310 310 310 310 310 309 309 309 309 309 308 308 309 309 309 308 308 309 308 307 306 305 304 305 305 302 300 297 294 293 296 298 300 302 303 303 304 305 306 307 305 303 302 300 298 296 296 296 295 296 297 298 299 300 301 300 300 301 302 302 301 301 302 303 304 305 306 306 307 308 310 311 312 312 312 312 312 314 319 323 324
308 308 308 308 309 309 309 309 309 308 309 309 308 308 308 308 309 309 309 308 308 308 308 307 305 304 304 304 304 303 302 300 295 291 292 295 298 301 301 301 302 303 305 306 305 303 301 300 298 296 296 296 296 296 296 297 298 299 299 299 299 300 300 299 299 300 301 302 303 305 306 307 308 310 312 312 312 313 314 314 313 315 319 322 323
308 308 308 308 308 309 309 309 308 307 308 308 308 307 307 308 308 308 307 307 307 307 307 306 305 305 304 303 304 303 302 301 298 292 290 292 295 298 299 299 299 301 303 304 305 303 302 301 299 296 296 296 296 296 296 296 297 298 299 298 298 299 299 299 299 300 301 302 302 303 304 306 307 308 308 309 309 310 311 312 313 315 319 321 322
307 308 308 308 308 308 308 308 308 307 307 307 307 306 307 307 307 307 306 306 306 307 307 306 305 305 304 304 304 303 302 301 299 293 290 290 292 295 296 295 297 299 301 302 304 303 302 302 300 297 296 296 297 297 296 296 297 297 298 298 297 298 298 298 299 300 300 301 301 302 302 303 304 304 304 305 305 305 305 306 308 311 314 316 318
307 307 307 307 308 307 308 308 308 307 307 306 306 306 306 307 307 307 306 306 306 306 306 306 305 304 304 304 304 303 301 301 299 294 290 289 290 291 292 292 294 297 299 300 303 302 301 301 300 297 296 297 297 297 297 297 297 297 297 297 297 298 298 299 300 300 300 300 301 300 301 301 301 301 301 302 302 302 302 302 304 307 309 311 313
306 307 307 307 307 306 307 307 307 307 307 307 306 306 306 306 306 307 307 307 306 306 305 306 305 304 304 304 304 303 301 299 298 294 290 289 288 289 291 291 292 295 297 299 301 301 299 298 298 297 297 297 298 298 297 297 297 297 297 297 298 298 299 299 300 300 300 300 300 299 299 299 299 299 299 299 300 300 300 300 302 304 306 308 310
306 307 307 306 306 306 306 306 307 307 307 307 307 306 306 306 305 305 306 306 306 305 304 304 304 304 304 303 303 303 300 298 298 295 290 288 288 288 290 290 290 293 296 297 299 299 297 295 296 297 297 298 298 298 298 298 297 297 297 297 298 298 298 299 299 299 299 299 298 298 298 298 298 298 298 298 298 298 299 300 300 301 302 304 306
306 306 306 305 305 305 305 306 306 306 306 307 306 305 306 306 305 305 305 305 305 304 303 302 303 302 303 302 302 302 300 297 297 295 290 288 288 288 289 289 289 292 295 297 297 296 294 294 297 298 297 298 298 298 299 298 297 297 297 297 298 298 297 297 298 298 298 298 297 297 298 297 297 297 297 297 297 298 298 299 299 299 299 300 301
306 306 306 305 305 305 305 306 305 305 306 306 305 305 305 304 304 304 304 303 303 303 302 301 301 301 301 301 300 301 300 298 297 294 290 287 287 287 287 288 287 290 294 295 294 292 293 296 298 297 297 298 298 298 299 298 297 297 296 296 297 297 296 296 297 297 297 296 296 296 297 297 297 297 296 296 297 297 297 297 297 298 298 299 299
305 306 305 306 306 305 305 305 304 305 305 304 304 304 304 303 302 302 302 302 302 302 301 300 299 299 300 300 299 298 298 298 296 293 289 287 287 287 287 287 286 288 291 291 290 292 295 297 297 297 297 297 297 297 297 296 295 295 295 295 296 295 294 295 296 295 295 295 295 296 296 296 296 296 296 296 296 296 296 296 296 297 298 298 299
305 306 306 306 305 305 304 303 303 304 305 304 303 304 304 303 301 300 300 300 300 301 301 299 298 298 298 299 298 297 297 297 295 291 288 287 287 286 286 287 286 287 288 288 290 294 297 297 296 296 296 296 296 295 295 294 294 294 294 293 294 293 292 293 294 293 293 293 294 294 295 294 295 295 295 295 295 295 296 296 296 296 297 297 298
306 306 306 305 305 305 305 304 303 304 304 304 304 303 303 303 300 297 297 297 298 299 299 297 296 296 297 298 297 295 295 295 292 289 287 286 286 286 286 287 286 287 288 289 291 295 296 296 296 295 294 295 296 295 294 294 294 293 293 293 293 292 292 292 292 291 291 292 292 292 292 292 292 293 293 293 294 294 294 295 295 296 296 297 297
306 306 306 305 305 304 304 303 304 304 303 302 303 302 303 303 300 295 293 293 294 296 297 296 294 294 295 296 295 293 294 293 290 286 285 285 285 285 286 286 286 287 289 290 292 295 296 296 295 294 294 295 295 294 294 294 293 293 293 292 292 292 291 291 291 290 290 290 290 291 291 291 291 291 291 292 292 292 293 294 294 295 295 296 297
306 306 305 305 305 304 302 301 303 304 302 301 300 298 299 301 300 294 291 291 291 292 293 293 291 291 294 294 292 291 292 290 287 285 285 285 285 285 285 286 287 288 290 291 292 294 295 295 294 294 293 294 294 293 293 293 293 292 292 291 291 291 291 291 290 289 289 289 289 290 290 290 289 289 290 290 291 291 291 292 293 293 294 295 296
306 306 306 305 305 305 303 302 303 304 303 300 298 296 295 297 297 295 293 292 291 290 290 290 289 289 291 291 289 288 288 287 285 285 285 285 285 285 286 288 288 289 290 292 292 293 294 294 294 293 293 293 293 293 292 293 292 292 291 291 290 290 290 290 289 289 289 289 289 289 289 288 288 288 289 289 289 289 290 291 291 292 293 294 295
306 306 306 305 305 304 303 303 303 303 303 302 300 298 296 294 294 295 295 294 293 292 291 291 290 289 289 288 287 286 286 285 285 285 285 285 285 286 288 290 290 290 290 292 293 293 293 294 293 293 293 293 292 292 292 292 292 291 291 291 290 289 290 289 288 288 288 288 288 288 288 287 287 287 288 288 288 288 289 289 290 291 292 293 293
306 306 306 305 304 304 303 304 304 303 303 303 302 301 298 295 294 294 295 295 294 293 293 292 292 292 290 289 288 287 286 285 285 285 285 285 285 287 289 291 291 291 291 292 293 293 293 293 293 293 292 292 292 291 291 291 291 291 291 290 289 289 289 288 287 287 287 287 288 287 287 287 287 287 287 287 287 287 288 288 288 290 291 291 291
306 305 305 305 305 304 303 304 304 304 303 303 303 302 301 299 296 295 295 295 294 294 294 294 293 293 292 291 290 288 286 285 285 285 285 285 286 288 290 291 291 292 291 292 293 293 292 292 293 292 292 292 291 291 291 290 290 290 290 289 288 288 288 287 286 286 287 287 287 286 286 286 286 286 286 286 286 286 286 287 287 288 289 289 289
306 306 305 305 305 304 303 303 304 304 303 303 303 302 302 302 300 298 296 295 294 294 295 294 294 294 293 292 291 290 287 286 286 286 286 286 287 289 291 292 292 293 292 292 293 292 291 292 292 292 291 291 290 290 290 290 289 289 289 288 288 288 287 286 285 286 286 286 286 285 285 285 285 285 285 285 285 285 285 286 286 287 287 288 288
306 306 305 305 306 305 303 302 303 304 304 303 303 303 302 301 301 300 299 297 296 296 296 295 295 294 293 292 292 290 288 287 288 288 287 287 288 290 291 292 292 293 293 292 292 291 291 291 291 291 290 290 290 290 289 289 288 288 288 287 287 287 286 285 285 285 285 285 285 284 284 283 284 284 283 284 284 284 284 285 285 285 286 286 287
305 306 305 305 306 305 303 302 302 303 304 303 303 303 301 301 301 300 300 299 299 299 298 296 295 294 293 292 292 290 288 288 289 289 289 288 289 290 291 291 291 291 291 291 291 290 290 291 290 290 290 289 289 289 288 288 288 288 287 287 287 286 285 285 284 285 284 284 283 283 282 282 282 282 282 282 282 283 284 284 284 284 285 285 286
305 305 305 305 305 305 305 304 303 304 304 304 303 302 302 301 300 300 299 300 299 299 298 297 296 294 292 292 291 290 289 289 289 289 290 289 289 290 290 291 291 291 290 290 290 289 289 290 290 289 289 289 288 288 287 287 287 286 286 286 286 285 285 284 284 284 283 282 282 281 281 281 281 281 281 281 281 282 283 283 283 283 284 284 285
304 305 305 304 304 304 304 304 304 304 304 303 303 303 301 301 300 299 299 299 299 299 298 297 296 295 294 293 292 290 289 289 290 290 290 290 290 290 290 290 290 290 290 289 289 289 289 289 289 288 288 288 287 287 286 286 285 285 285 285 285 285 284 283 283 283 282 281 280 280 280 280 279 279 280 280 280 281 281 282 282 283 283 284 285
304 304 304 304 304 303 303 303 304 304 304 303 303 302 301 300 300 300 300 299 299 298 298 298 298 296 295 293 291 289 289 289 291 291 291 290 290 290 290 289 290 289 289 288 288 288 288 288 287 287 287 287 286 286 285 285 284 284 284 284 284 284 283 282 282 281 280 280 279 279 278 278 278 278 278 279 280 280 280 281 282 282 283 284 284
304 304 304 304 303 303 301 301 302 303 303 303 302 301 300 300 300 300 300 299 299 299 299 298 297 296 294 293 292 290 289 289 290 291 290 290 289 289 289 289 289 289 288 288 287 287 287 287 286 286 286 286 285 284 284 284 284 283 283 283 283 283 282 281 281 280 279 278 278 277 277 277 277 277 278 278 279 279 280 280 281 282 282 283 284
305 304 303 303 303 302 301 300 302 303 303 303 302 301 300 300 300 300 299 299 299 299 298 298 296 295 294 294 293 291 289 289 290 291 290 289 289 289 288 288 288 288 288 287 287 287 287 286 285 285 286 285 284 283 283 283 283 283 283 282 282 282 281 280 280 279 278 277 277 276 276 276 276 277 277 278 278 278 279 280 280 281 282 283 284
305 304 303 302 302 301 301 301 302 303 303 302 302 301 300 300 300 299 299 299 299 298 298 297 296 295 294 293 293 292 290 289 289 290 289 289 289 288 288 288 288 288 287 286 286 286 286 285 285 285 285 284 283 283 282 282 282 282 282 282 281 280 280 280 279 278 277 276 275 275 275 275 276 276 277 277 277 278 278 279 280 281 282 283 284
305 304 303 302 301 301 301 302 302 302 303 302 301 301 300 300 300 299 299 298 298 297 297 296 295 294 293 293 292 291 290 289 289 289 289 288 288 288 287 288 288 287 286 286 286 286 285 284 284 284 284 283 283 282 282 282 282 281 281 281 280 280 280 279 278 277 276 275 274 274 274 275 275 276 276 276 277 278 278 279 281 282 282 283 283
305 304 303 301 301 301 301 301 301 301 302 302 301 300 300 299 299 299 299 298 298 297 296 295 295 294 293 292 292 291 290 289 290 290 289 288 288 287 287 287 287 286 286 285 286 285 285 284 284 284 283 283 283 282 281 281 281 281 280 280 280 279 279 278 277 276 275 274 274 274 274 274 275 275 275 276 277 278 278 280 281 282 282 283 283
305 304 302 301 300 300 300 299 299 300 300 301 301 300 299 299 299 298 298 298 297 297 296 295 295 294 293 292 291 291 290 290 290 289 289 288 288 287 287 287 287 286 285 285 285 285 284 283 283 283 283 282 282 281 281 281 281 281 280 280 279 279 278 278 277 276 274 273 273 273 273 274 274 274 275 276 277 277 278 280 281 282 282 283 283
305 304 302 301 300 299 299 298 298 299 299 300 300 299 299 298 298 298 298 297 297 297 296 295 295 294 293 293 292 292 291 291 290 289 289 288 288 288 287 287 286 285 285 285 285 285 284 283 283 282 282 282 281 281 281 281 281 280 280 280 279 279 278 277 277 275 274 273 272 273 273 273 274 274 275 276 277 278 279 280 282 282 282 282 282
304 303 302 300 299 299 298 298 299 299 299 299 299 299 299 298 298 298 297 297 297 296 296 295 295 294 294 293 292 292 292 291 290 290 289 289 288 288 287 287 286 285 284 284 285 284 284 284 283 282 282 281 281 281 281 281 280 280 280 279 279 278 278 277 276 275 274 272 272 272 272 273 273 274 276 277 277 278 280 281 281 282 282 281 281
304 303 302 300 299 298 298 298 299 299 299 299 299 299 299 299 298 297 297 297 296 296 295 295 294 294 294 293 292 292 291 291 290 290 289 289 288 288 287 287 286 285 284 284 284 284 284 284 283 282 282 281 281 281 281 280 280 280 279 279 279 278 277 277 276 275 274 273 273 272 272 272 274 275 276 277 278 279 281 281 281 281 281 280 280
304 303 302 300 299 298 298 298 298 299 299 299 299 299 299 298 298 297 297 297 296 295 295 294 294 294 293 293 292 292 291 291 290 290 289 289 288 288 287 287 286 285 284 284 284 284 284 284 283 283 282 282 281 281 281 280 280 280 279 279 278 278 277 276 276 275 275 274 274 274 273 273 275 276 277 278 279 280 281 281 281 280 280 280 280
304 303 302 300 299 299 298 298 298 298 299 299 299 299 298 298 298 297 297 297 296 295 294 294 294 293 293 293 292 292 291 290 290 289 289 289 288 288 287 286 286 285 284 284 284 284 283 283 283 283 283 282 281 281 280 280 280 280 279 279 278 278 277 276 275 275 275 275 275 275 274 274 275 277 278 279 280 280 280 280 280 280 280 280 280
303 302 301 300 299 299 299 298 299 299 298 298 299 298 298 298 298 298 297 296 296 295 294 294 294 293 293 293 292 291 291 290 290 289 289 288 288 287 287 286 285 285 285 284 283 283 283 283 283 283 282 282 281 281 280 280 280 279 279 278 278 277 276 275 275 276 276 276 276 275 275 275 276 278 279 279 280 280 280 280 279 279 280 280 280
Wind_Speed
11 11 11 12 13 14 15 15 15 15 16 16 16 16 16 16 17 16 15 15 14 16 18 18 17 18 18 17 16 16 16 17 17 16 16 16 15 15 15 14 14 14 14 14 12 11 10 11 12 12 13 13 14 14 15 17 16 16 17 18 19 20 19 15 9 12 22 25 23 26 27 23 23 24 25 26 26 28 34 35 34 33 31 33 34
10 10 11 12 13 13 14 15 15 15 16 17 16 17 17 17 17 17 17 18 18 19 19 18 18 19 19 18 18 17 17 16 16 16 17 17 16 16 16 16 15 14 14 14 14 13 13 12 13 13 12 12 11 12 14 15 13 13 15 16 19 21 18 14 13 12 16 20 22 24 24 21 21 23 23 24 27 26 27 29 29 27 28 31 32
10 10 11 11 11 12 13 14 13 14 15 16 16 16 17 17 17 17 17 18 18 18 19 18 18 18 19 19 20 21 19 18 17 17 17 18 17 16 16 16 16 14 12 13 14 15 15 15 15 14 13 13 12 11 12 12 11 11 14 12 13 18 17 15 15 12 10 14 20 22 22 21 21 23 23 23 24 24 23 24 27 28 26 26 28
9 9 9 9 10 11 11 12 13 14 15 15 16 16 16 17 17 17 17 17 18 17 17 18 18 19 20 20 22 24 22 20 19 19 19 19 19 17 15 16 17 16 12 11 13 15 16 17 17 16 15 16 16 14 13 13 10 9 11 10 8 11 15 15 16 16 12 13 18 21 22 21 21 22 23 23 24 24 24 24 25 27 26 23 21
7 9 9 9 10 9 10 11 12 13 14 14 15 15 15 16 16 17 17 16 16 17 17 18 19 21 23 23 24 24 23 21 21 21 20 20 20 18 17 17 19 19 16 13 12 13 14 16 18 18 17 17 18 19 18 17 14 12 12 12 10 11 12 12 14 17 17 17 19 20 21 20 20 20 19 21 24 25 25 26 26 25 25 26 26
6 7 8 8 8 9 10 10 10 11 12 12 13 13 15 15 15 16 16 15 15 15 16 17 18 20 24 26 26 25 24 24 22 22 21 20 20 18 17 19 19 19 19 17 15 14 13 15 18 20 20 20 19 20 20 20 19 18 16 15 12 11 11 11 11 13 17 20 20 18 18 18 19 19 18 18 20 23 25 27 27 23 22 23 22
5 5 7 7 7 7 8 8 8 9 10 11 12 12 13 14 14 15 15 14 15 14 13 14 15 17 20 25 29 27 26 25 23 23 22 20 20 18 17 19 19 18 19 19 20 18 15 16 20 21 22 22 22 21 21 20 20 19 18 17 15 14 13 13 13 13 14 18 18 16 16 17 17 19 20 18 18 20 22 22 22 22 23 23 21
5 4 5 6 6 6 7 6 7 8 8 9 10 11 12 13 13 14 15 15 15 15 14 12 13 15 16 22 28 29 28 27 25 23 22 21 20 18 18 19 18 18 19 19 19 18 15 16 20 21 22 23 23 23 23 22 21 20 18 17 17 16 16 15 15 14 14 15 16 16 16 16 16 18 20 18 17 17 16 15 16 21 24 25 24
4 4 4 5 5 6 6 6 6 7 8 9 10 10 11 12 12 13 14 15 15 15 15 13 13 13 14 19 26 29 30 29 26 23 21 21 19 18 19 18 17 17 18 18 18 17 15 15 17 20 22 23 23 24 23 22 21 20 18 17 16 16 17 17 16 15 16 16 16 16 15 14 14 15 16 17 16 17 18 17 16 19 21 22 23
3 4 4 4 4 5 5 6 6 7 8 9 10 11 11 11 12 13 13 14 14 15 15 16 15 14 14 20 26 29 30 31 27 21 18 19 18 18 18 18 17 17 18 17 17 17 17 14 14 19 22 23 25 26 25 23 22 20 17 14 14 16 17 17 16 15 16 16 16 15 13 13 14 15 15 18 18 19 20 19 17 19 18 17 19
3 4 4 4 4 5 5 5 7 7 8 9 10 11 11 11 12 12 13 13 13 14 14 15 16 15 15 20 25 27 30 31 27 21 18 17 18 18 18 17 16 16 17 17 16 18 19 17 16 21 25 27 29 29 26 25 23 21 18 15 13 15 17 17 17 17 17 16 17 16 14 13 16 16 16 18 19 18 20 18 17 17 15 10 12
3 4 4 4 5 5 5 6 7 7 8 9 10 10 11 11 11 11 12 12 12 13 13 14 16 14 14 19 24 26 29 31 29 24 19 17 19 19 18 16 16 16 17 16 15 18 20 19 20 23 26 30 32 30 28 27 24 22 21 18 15 13 13 15 18 18 17 16 17 17 16 16 19 18 18 21 23 22 21 20 18 15 13 11 11
3 4 5 5 5 5 6 7 7 7 8 8 9 10 10 10 10 11 11 11 11 12 13 14 15 14 13 17 22 26 29 30 30 27 21 18 20 21 19 16 16 16 16 15 15 19 20 20 22 23 25 30 32 31 30 29 26 24 22 20 18 16 15 13 14 15 16 17 19 19 19 22 25 24 24 26 27 24 21 21 20 18 17 16 17
4 4 5 5 5 6 7 7 7 8 8 8 9 10 10 10 10 10 11 11 11 12 13 13 14 14 13 13 19 26 29 30 29 28 24 20 21 21 19 17 15 16 16 15 16 19 20 20 22 22 24 29 31 31 31 29 26 25 23 21 20 19 18 15 15 16 18 20 23 24 24 25 27 29 30 30 29 26 23 22 23 22 22 23 23
4 4 5 5 5 6 7 7 7 8 8 8 9 9 10 10 10 10 10 10 10 10 11 13 13 14 13 11 14 22 28 30 29 28 26 23 21 21 20 18 16 16 16 15 16 19 21 22 24 23 24 28 29 29 30 28 24 23 23 22 22 21 18 17 20 22 22 22 22 24 25 25 25 27 28 29 28 28 26 25 25 25 25 25 25
5 5 5 5 6 6 7 7 7 7 8 8 9 9 9 9 9 9 8 9 9 9 10 11 12 13 13 12 12 17 23 29 30 28 26 24 22 22 21 18 17 17 15 14 16 20 22 24 27 25 24 27 28 28 29 26 22 21 23 24 24 22 19 21 26 25 23 22 22 22 23 23 23 22 23 24 25 27 27 25 25 23 21 19 19
5 5 5 5 5 5 6 7 6 7 8 8 9 8 8 8 8 7 7 8 8 8 9 10 10 11 12 12 12 14 18 25 29 29 27 24 22 21 21 20 18 17 16 13 14 18 20 23 28 27 23 25 27 28 29 28 23 21 23 25 25 24 24 28 30 28 25 25 24 22 23 24 23 23 24 25 26 26 24 23 24 21 17 13 12
6 6 6 6 6 6 6 7 7 8 8 8 8 8 8 8 8 8 8 7 7 7 8 8 8 9 10 10 11 12 16 21 27 30 28 25 23 20 20 21 19 18 19 15 13 15 17 20 25 26 22 22 25 27 27 28 26 22 22 25 25 24 27 32 32 30 29 28 26 25 25 24 24 24 24 24 25 26 22 19 22 21 16 13 13
6 6 6 6 6 6 7 7 7 7 8 8 7 7 7 7 7 8 8 9 8 7 6 6 7 7 7 7 8 10 13 17 23 27 25 23 22 20 19 22 21 19 20 19 15 15 16 19 22 24 22 20 22 24 25 26 26 23 22 25 25 24 27 30 29 29 30 30 29 28 27 25 25 25 24 24 24 24 24 22 22 21 18 17 18
7 7 6 6 7 7 7 7 7 7 7 6 6 6 6 6 6 6 7 8 8 7 6 5 5 6 5 5 6 7 9 12 17 22 23 21 22 21 20 22 21 18 18 18 16 16 17 17 20 22 23 20 19 21 23 25 24 23 23 25 25 25 28 28 24 24 26 27 27 27 26 26 26 25 26 27 26 27 28 26 23 21 20 20 20
7 7 7 7 7 7 7 6 6 6 5 5 5 5 5 6 6 5 5 6 6 6 7 6 5 5 6 6 5 4 6 10 15 21 23 22 22 21 19 20 20 17 15 15 15 15 17 18 18 19 22 21 20 19 21 24 24 22 24 25 23 23 28 27 23 22 23 24 24 25 25 26 27 27 27 28 28 30 31 29 25 23 21 21 21
7 7 7 8 7 7 6 5 4 4 4 4 4 4 4 4 5 6 4 3 3 5 6 6 6 6 7 8 6 4 7 11 14 19 23 22 21 20 18 18 17 15 13 13 14 14 17 17 16 17 19 19 20 19 19 23 24 22 23 25 22 21 25 25 23 23 23 23 23 23 24 26 27 27 28 29 30 32 32 30 28 25 22 21 21
8 8 8 8 7 6 5 4 3 3 3 3 3 4 3 3 3 4 5 4 4 4 5 6 7 6 7 8 7 5 6 10 13 18 22 22 20 19 17 17 16 14 13 12 13 15 16 16 14 16 18 17 18 18 17 21 24 23 22 24 22 21 23 23 23 24 23 23 23 23 23 25 26 27 29 30 32 32 30 29 29 28 27 24 23
9 9 8 7 7 6 5 4 4 3 2 2 2 3 4 3 3 4 5 5 5 6 6 7 7 7 7 8 8 6 6 8 12 18 21 21 20 19 18 18 17 15 12 11 13 15 14 13 13 16 17 16 16 17 16 19 22 21 22 23 21 21 23 22 22 23 22 22 23 23 23 24 24 26 28 30 31 30 28 28 29 30 29 28 27
10 9 9 8 7 6 5 5 4 3 3 2 3 3 3 4 5 6 7 7 7 7 7 8 8 8 8 8 8 8 7 7 11 18 20 19 19 19 18 18 18 16 13 12 14 13 11 12 13 14 16 15 15 16 16 17 19 19 20 21 21 22 24 23 22 22 22 22 22 22 23 25 25 26 27 28 28 28 28 30 30 30 30 31 30
11 10 10 9 8 7 7 6 5 4 3 3 3 3 3 4 6 7 8 8 8 8 7 8 8 8 8 8 9 9 8 8 13 18 18 18 18 18 18 18 18 17 16 15 14 12 11 12 13 15 17 15 14 15 16 16 17 17 19 20 20 22 24 23 23 23 22 22 22 22 23 25 25 26 27 27 27 27 28 30 31 30 31 31 31
12 11 11 10 9 8 7 8 7 6 4 4 4 4 4 5 7 7 7 7 7 8 8 8 7 7 8 9 9 9 9 10 15 18 17 17 18 17 17 18 18 18 18 17 15 13 14 14 14 16 17 15 14 15 15 16 16 17 19 19 19 21 22 21 21 22 22 22 22 22 23 24 25 26 27 27 26 27 28 29 29 29 30 29 27
13 12 12 11 10 9 7 8 9 8 5 4 5 6 6 6 7 6 6 6 5 5 6 6 6 6 8 8 8 9 9 10 15 17 17 16 17 16 16 17 18 18 18 18 16 14 15 16 15 15 16 15 15 15 15 16 17 17 18 19 18 19 20 19 20 22 22 22 23 22 23 24 25 25 27 26 26 27 28 28 27 28 28 26 24
14 13 12 12 11 10 9 9 9 8 8 7 6 6 6 6 5 5 5 5 4 3 3 3 3 4 5 6 7 7 7 10 13 14 14 14 14 15 14 15 16 16 15 16 17 16 16 15 14 15 16 15 15 16 16 16 17 17 17 18 18 20 20 20 21 23 23 23 23 23 24 25 25 25 26 25 26 27 27 27 27 27 26 24 22
15 14 13 13 12 11 11 10 9 8 9 11 10 8 8 8 5 4 5 5 4 4 3 3 4 6 4 4 6 7 7 10 12 12 11 12 12 11 11 12 14 14 13 14 16 16 15 14 13 14 15 15 15 16 16 16 17 17 17 18 18 20 20 20 22 23 22 22 22 22 23 25 25 25 25 25 26 27 27 26 26 25 24 22 21
16 15 14 14 13 13 12 11 11 9 10 13 13 12 11 11 8 5 4 4 4 4 3 4 5 7 6 5 7 9 9 10 11 11 11 11 10 9 8 10 12 13 12 13 15 15 14 12 13 14 14 14 14 15 16 16 16 17 17 17 18 19 19 20 22 23 22 22 22 22 23 24 24 25 25 26 26 27 26 25 25 24 22 21 21
17 16 16 15 15 15 14 12 12 12 10 11 14 14 15 14 12 9 7 6 5 4 2 1 3 5 7 7 7 8 10 10 10 10 11 11 9 8 7 7 9 11 12 12 12 13 13 12 12 13 13 13 14 14 15 15 15 16 16 17 18 18 18 19 22 21 21 21 22 22 23 23 24 24 25 25 26 26 25 25 25 23 22 22 21
19 17 17 16 17 17 15 13 13 13 11 11 11 12 14 16 15 13 12 10 8 6 5 3 2 1 5 6 7 8 10 10 10 11 11 10 9 7 7 8 7 7 10 11 10 11 12 11 11 12 12 12 13 13 14 14 14 15 15 16 17 17 17 18 21 20 20 20 21 21 23 23 23 24 24 25 25 25 24 24 24 23 22 22 21
20 18 18 18 18 18 16 15 13 13 13 12 12 10 10 12 14 15 15 14 12 11 10 8 7 3 2 5 6 8 10 9 9 10 10 10 8 7 8 11 8 5 7 8 8 9 11 10 10 11 11 12 13 13 13 14 14 14 15 15 16 16 16 18 20 20 19 20 20 21 23 23 23 23 24 24 24 24 24 23 23 22 22 21 21
20 19 19 18 18 18 17 16 15 15 14 13 12 11 9 8 10 12 13 13 13 12 12 12 11 7 2 2 5 8 9 8 8 10 10 10 9 8 9 12 11 7 7 7 7 9 11 10 10 11 11 11 12 12 13 13 14 14 14 15 15 15 16 18 19 19 19 19 20 21 22 22 22 23 23 23 23 23 23 23 23 23 22 21 21
21 20 19 19 18 17 17 17 16 15 15 13 12 11 9 9 9 9 9 10 10 9 10 11 10 8 6 2 2 5 6 5 6 7 9 10 10 10 10 10 10 9 8 8 8 9 10 9 10 10 10 11 11 11 12 13 13 13 14 14 14 14 16 17 18 17 18 19 19 21 22 21 22 23 23 23 23 22 21 22 23 22 22 22 23
21 20 19 20 19 17 16 17 16 16 15 13 12 11 10 9 9 8 8 9 8 7 8 12 11 9 8 5 1 3 4 4 4 5 5 6 7 8 8 8 8 7 7 8 8 9 9 9 9 10 10 10 10 10 11 12 12 13 13 13 13 13 15 16 16 16 17 18 20 21 21 21 22 22 22 23 23 22 21 22 22 22 22 22 23
22 21 20 21 22 20 17 16 15 16 15 13 12 12 11 10 10 10 9 9 7 5 7 12 14 13 11 7 2 2 6 8 8 7 4 3 3 5 6 6 6 6 6 7 8 8 8 8 9 9 9 10 10 10 11 11 12 12 13 13 13 13 13 14 15 15 16 18 20 21 22 22 22 21 21 22 22 22 22 22 21 21 22 22 22
23 22 21 22 23 23 20 17 15 16 16 15 13 13 12 11 12 12 11 10 9 8 8 10 11 12 12 11 7 2 3 6 7 5 3 2 3 3 4 4 5 5 5 6 6 7 7 8 8 9 9 9 9 10 10 10 11 11 12 12 13 13 13 14 15 15 16 19 21 21 22 22 22 21 20 20 21 21 22 21 21 21 21 21 22
24 24 24 24 25 24 22 19 17 17 17 17 16 14 14 13 13 12 11 11 10 10 10 8 6 8 13 13 7 1 2 3 4 3 1 1 2 3 3 3 4 4 4 5 6 6 6 7 7 8 8 8 8 9 9 10 10 10 11 11 12 12 13 14 14 14 17 19 21 21 21 21 22 22 21 20 20 20 20 20 20 20 21 22 23
24 24 25 26 26 25 23 21 20 19 19 19 17 16 16 15 14 12 12 11 10 9 8 7 6 9 12 11 6 2 2 3 3 3 2 1 2 2 2 2 3 3 3 4 5 5 5 6 7 7 6 7 8 9 9 9 9 10 10 11 11 11 13 13 13 15 18 20 21 21 20 21 21 21 21 21 21 19 19 20 20 20 21 22 23
24 24 27 29 28 26 24 23 21 20 19 19 19 17 16 16 15 14 13 11 10 9 8 7 8 11 12 10 8 5 4 3 4 4 3 2 2 2 2 2 2 2 2 3 4 4 4 5 5 5 6 7 7 8 8 8 8 9 9 10 10 11 12 12 13 15 19 21 21 20 20 20 20 19 20 20 20 19 20 20 20 21 22 22 23
26 25 28 31 30 28 25 23 22 21 20 20 20 19 17 16 15 15 14 11 10 10 9 7 9 12 12 10 8 6 5 3 5 6 5 4 4 3 2 2 2 2 2 3 3 3 4 4 4 5 6 6 6 8 8 7 7 8 8 9 10 10 10 11 14 17 21 22 21 19 19 20 19 18 19 19 19 20 20 20 21 22 22 23 23
28 26 27 30 31 29 26 23 22 21 20 20 20 19 18 16 14 13 14 13 12 11 10 9 10 12 13 11 8 5 4 5 8 8 6 5 4 4 3 3 3 4 3 3 3 4 4 4 4 4 5 5 6 7 7 6 6 7 8 8 9 9 9 12 17 21 22 21 19 18 19 19 18 18 18 18 19 20 20 20 21 23 24 23 23
29 27 27 29 30 29 27 25 23 22 21 21 21 20 18 17 16 14 14 14 13 13 12 11 10 13 13 11 9 7 6 8 10 9 8 7 6 5 5 4 4 4 3 3 4 5 5 6 5 4 4 4 5 6 6 5 5 7 7 7 7 8 10 15 20 23 21 19 18 19 19 18 18 18 18 18 20 21 21 21 23 24 24 24 24
30 28 28 29 30 30 29 28 26 25 24 23 23 21 19 18 18 16 15 14 14 14 13 12 11 12 13 11 10 10 10 10 10 9 8 8 8 6 5 5 5 5 4 4 5 7 8 7 5 4 4 5 6 6 5 4 5 5 5 7 8 10 14 19 22 22 19 17 18 20 20 19 18 18 18 20 22 22 21 22 23 23 23 24 24
30 29 29 30 30 30 30 29 28 27 26 25 24 23 21 20 20 18 16 16 15 14 13 13 12 12 12 12 12 12 12 11 10 9 9 9 8 7 7 7 7 6 5 4 5 6 7 6 4 5 6 7 7 5 3 4 4 3 4 8 11 13 17 21 22 20 18 17 18 20 20 19 19 18 19 21 22 22 21 22 22 23 23 23 24
30 28 29 30 30 30 29 29 29 29 28 26 25 24 23 22 21 20 18 17 16 14 13 13 12 12 12 12 12 12 11 11 10 10 10 9 9 8 8 9 8 6 5 5 5 6 6 6 7 7 6 6 5 4 4 4 3 2 5 10 12 14 19 23 23 21 19 19 19 20 20 19 18 18 20 22 21 21 22 22 22 23 23 22 23
31 29 29 31 31 31 30 31 31 30 28 25 24 25 24 21 21 21 19 18 17 16 14 13 13 13 12 12 12 12 12 11 11 10 10 9 9 9 9 9 9 8 6 5 5 6 6 7 8 7 6 5 4 4 4 4 4 5 9 11 13 17 21 23 22 21 20 20 21 21 19 17 17 19 20 21 20 21 22 22 22 23 23 22 22
32 32 31 32 32 31 31 31 30 30 29 26 24 25 24 22 21 21 20 18 18 18 16 15 14 14 14 13 13 13 12 12 12 11 10 10 9 9 9 9 8 7 6 5 6 6 6 6 7 7 6 6 5 4 4 5 7 9 11 13 16 20 22 20 20 20 20 20 21 20 17 16 17 19 19 20 20 20 21 22 22 23 22 21 21
33 33 32 32 31 30 30 30 29 29 30 29 26 25 25 24 22 21 20 19 19 19 18 17 16 15 15 14 14 14 14 13 12 11 10 10 9 9 9 9 8 7 6 7 6 6 7 6 6 6 6 5 4 4 6 8 10 11 12 15 18 20 21 19 19 19 19 19 19 18 15 14 16 17 18 19 19 20 21 21 21 21 21 20 21
Wind_Direction
4 13 21 14 6 4 1 359 1 1 1 3 5 8 10 11 13 18 24 27 26 33 43 44 39 38 41 40 34 30 28 25 21 17 15 14 12 12 11 9 11 9 6 3 351 337 327 324 321 316 311 305 294 292 293 290 292 292 287 285 280 271 258 245 246 268 272 275 279 283 289 297 296 281 277 291 293 293 301 285 252 233 229 234 240
355 11 26 18 8 7 5 4 6 5 5 8 10 12 14 15 20 28 36 41 42 44 46 45 42 39 37 36 32 29 28 25 20 16 12 11 10 8 4 5 10 12 16 19 14 10 5 356 354 349 339 331 320 313 310 303 304 313 313 302 286 279 277 275 274 267 270 281 287 292 297 300 298 291 287 291 295 299 307 300 281 260 241 233 237
349 8 26 21 14 13 10 7 9 8 7 11 14 16 17 19 27 35 40 44 45 44 43 42 42 40 37 34 29 28 28 25 22 19 17 16 12 6 0 359 1 3 11 20 19 23 27 24 23 18 11 10 3 352 346 336 325 324 324 312 286 279 286 296 294 280 270 283 289 290 295 300 302 303 302 299 299 304 308 303 300 294 273 249 241
352 2 17 26 27 19 11 8 8 9 10 13 16 17 20 23 30 36 41 46 45 43 44 44 43 41 39 35 29 29 29 25 24 24 22 21 17 13 10 3 359 359 4 14 21 28 36 38 39 38 36 37 31 23 18 10 1 354 346 342 326 305 303 304 300 291 280 275 280 283 287 294 300 303 306 305 301 302 304 301 303 305 302 296 283
359 356 3 26 32 21 16 15 10 9 10 14 15 17 21 24 29 34 39 46 47 46 45 44 44 44 42 39 33 31 30 28 27 25 23 22 19 17 20 14 5 3 7 13 18 24 34 42 46 46 43 40 35 29 24 20 19 17 10 4 354 331 317 310 298 289 283 275 273 280 285 291 297 301 307 310 304 301 303 304 307 309 307 311 312
357 355 359 18 30 26 25 18 11 14 14 15 17 18 22 24 27 32 35 42 46 46 47 46 44 43 42 40 35 32 31 29 27 25 23 23 21 20 25 20 8 7 15 20 21 24 37 50 49 45 42 39 32 26 22 19 19 18 14 10 2 343 328 322 310 297 291 287 284 286 289 293 297 300 305 306 303 303 304 304 309 312 306 307 315
352 1 4 12 23 38 38 17 13 23 21 20 22 23 26 27 28 31 34 38 41 43 49 51 49 44 38 36 33 30 30 28 26 26 25 23 23 24 30 24 10 10 20 22 23 29 45 53 46 41 40 37 30 23 17 12 10 10 8 3 360 352 342 334 326 316 303 297 297 298 299 302 301 300 304 305 302 303 305 306 308 313 312 308 314
354 4 15 13 12 38 51 28 22 30 25 27 29 28 33 32 32 37 38 39 38 38 43 50 55 50 37 29 27 25 27 26 22 22 23 24 25 28 33 26 12 13 22 22 24 31 43 49 45 40 34 30 27 22 16 11 5 2 0 357 354 351 346 342 336 329 321 313 310 308 309 311 309 307 310 312 310 309 311 316 312 311 314 311 309
0 2 25 24 6 23 38 27 30 37 29 31 30 32 38 36 36 40 40 42 41 36 36 38 46 53 42 27 22 21 23 23 19 18 20 23 26 30 33 27 16 18 22 22 25 31 37 40 37 31 22 16 16 13 9 8 6 2 358 354 351 348 345 343 337 331 326 318 314 316 317 315 313 315 318 317 316 315 316 322 319 312 315 315 309
14 8 27 30 11 22 31 22 28 34 32 34 31 33 38 36 39 42 39 41 41 37 35 31 34 49 48 33 25 22 21 20 19 19 22 24 26 31 33 26 21 23 22 22 25 26 27 29 20 11 5 2 2 1 1 3 5 5 4 1 356 350 344 340 336 334 329 320 316 319 318 316 318 321 320 319 320 318 316 322 324 321 324 323 311
29 26 32 35 26 29 34 33 35 31 32 38 34 32 36 36 38 41 39 40 40 38 37 32 33 46 48 35 28 25 23 21 20 22 28 31 31 32 33 26 23 26 23 24 28 23 21 24 15 3 358 357 356 356 358 2 4 5 7 11 10 357 346 339 334 330 325 319 319 322 318 315 319 322 326 330 333 329 324 325 322 316 320 320 305
37 43 43 47 45 37 38 46 48 38 34 40 39 34 36 37 38 39 38 38 39 40 41 38 36 42 46 37 31 29 26 24 23 25 30 37 36 34 33 28 26 27 25 25 31 29 25 23 17 7 359 357 358 359 359 0 2 5 8 13 14 5 356 348 341 339 335 330 329 330 330 331 329 331 339 342 340 336 331 328 323 316 312 304 290
55 57 57 57 54 49 50 53 52 46 40 42 43 40 40 39 36 37 38 37 40 41 42 42 37 38 46 40 31 30 28 25 26 28 31 39 40 36 32 28 29 28 25 28 36 36 30 19 12 7 0 359 2 4 2 0 2 5 8 10 7 6 11 4 354 358 360 352 344 337 332 335 332 326 325 329 330 331 331 326 322 319 313 303 293
74 67 68 64 57 56 60 57 52 53 49 45 46 44 42 41 36 37 38 36 38 41 41 43 40 37 44 41 30 29 28 24 24 28 31 37 41 37 29 27 32 29 25 33 41 37 30 21 14 8 4 5 9 9 6 5 7 6 5 6 3 5 12 1 344 346 346 343 339 331 324 325 323 317 314 318 320 319 316 312 311 310 305 299 295
92 79 74 68 63 61 63 60 54 55 55 51 51 46 42 41 36 38 40 35 37 44 45 45 43 38 42 42 30 26 25 22 21 24 26 31 38 36 25 23 31 27 25 38 43 36 30 24 17 12 10 13 16 14 11 12 12 6 3 3 1 2 6 353 341 340 338 336 334 329 326 327 324 319 315 315 314 310 306 301 298 298 297 296 294
104 93 81 71 67 62 64 65 57 55 58 53 50 45 41 41 36 34 43 40 37 49 54 51 46 40 42 44 31 21 20 18 16 19 22 24 32 33 23 21 26 21 23 38 39 33 32 25 18 16 17 19 20 19 18 19 18 8 3 2 359 359 360 352 350 352 350 349 348 341 338 339 337 334 331 328 322 316 311 305 299 293 290 291 292
111 103 93 80 72 64 66 71 62 58 60 53 49 44 39 41 35 28 41 46 40 51 63 60 53 46 44 46 33 14 12 14 13 15 19 22 29 32 23 19 23 17 17 31 38 34 32 24 19 20 20 20 21 22 21 22 20 11 3 2 360 358 357 353 354 358 357 355 354 349 346 347 348 349 348 347 345 338 326 313 308 305 293 283 284
116 105 96 90 84 72 66 70 67 64 62 53 48 45 40 39 33 26 36 47 45 54 66 67 63 54 46 48 44 22 10 11 12 12 15 19 27 33 26 21 25 22 15 18 31 33 22 11 13 19 21 21 22 23 23 21 19 13 5 2 359 356 353 353 355 357 356 355 354 353 353 353 351 351 351 352 357 1 355 336 327 326 312 296 295
122 112 102 97 93 82 72 69 66 66 64 57 48 45 42 39 34 32 38 41 41 46 56 70 77 70 55 55 57 33 12 11 13 12 12 17 24 32 30 24 25 25 15 8 14 23 14 1 4 12 18 20 20 21 23 20 16 12 5 359 356 354 351 352 356 357 354 354 355 355 356 356 354 353 352 352 355 360 359 353 347 344 335 324 321
124 121 113 105 98 91 84 75 68 67 67 62 54 48 45 38 33 40 47 45 42 34 27 44 68 70 64 65 63 38 18 17 17 14 14 20 25 30 31 26 21 20 13 4 4 12 10 360 358 6 15 19 17 17 21 21 16 12 6 360 357 355 351 351 356 356 353 353 354 354 355 356 356 356 354 353 354 353 353 353 350 345 337 328 325
128 126 119 112 103 95 92 84 76 72 67 65 63 52 47 40 31 38 52 52 50 38 25 30 42 39 43 56 66 60 42 31 20 13 15 21 25 29 31 27 21 17 11 4 3 5 2 354 353 3 13 17 16 13 16 17 15 12 9 5 2 360 358 359 0 357 355 356 357 356 356 357 357 358 356 354 352 351 350 351 350 345 338 330 326
139 135 124 116 108 101 100 95 89 85 74 69 69 55 49 50 37 32 35 38 50 49 34 29 31 30 37 51 67 77 58 42 23 11 12 16 21 26 30 28 25 21 14 7 4 360 352 349 354 2 6 10 13 13 12 12 10 7 6 7 8 6 4 4 3 359 358 360 359 357 358 358 356 355 355 353 351 350 348 347 346 343 339 332 327
147 140 130 124 121 118 115 111 110 107 93 81 76 59 43 51 46 29 22 21 31 47 41 30 29 30 37 50 60 61 52 43 24 9 8 12 16 21 26 26 26 28 25 10 357 348 346 348 355 359 360 2 4 6 10 10 6 4 4 5 8 8 6 5 4 2 0 0 359 358 358 357 354 352 350 348 347 347 347 345 342 340 339 336 331
150 143 141 141 141 142 140 136 135 126 112 106 97 73 44 40 47 34 26 25 24 32 37 31 29 27 27 39 46 36 39 41 18 4 3 7 11 15 20 22 23 30 35 15 350 345 349 352 355 357 1 5 4 4 9 8 4 3 3 3 5 8 7 5 4 3 2 359 357 355 354 353 351 348 345 343 343 344 344 343 342 342 341 339 335
155 155 155 155 155 158 155 145 146 150 141 123 99 86 64 52 47 35 32 32 24 26 32 28 27 25 18 25 31 25 29 28 3 354 356 2 7 11 14 19 21 26 29 11 354 357 2 359 360 5 8 10 11 12 13 9 5 5 5 5 7 8 6 4 4 4 2 358 354 350 349 349 347 344 342 341 342 344 344 344 343 343 343 341 340
166 167 164 165 166 166 164 160 158 159 164 156 127 106 90 77 65 45 37 35 25 24 31 29 26 20 12 18 23 17 19 9 349 347 353 359 5 8 10 15 20 23 22 12 7 17 20 11 14 18 14 12 19 21 17 11 9 8 7 7 9 9 7 6 6 4 360 354 351 348 346 345 343 342 343 343 344 346 345 343 342 342 343 344 342
173 172 169 172 176 177 181 180 171 163 169 172 140 109 89 90 86 64 46 43 32 25 29 32 29 15 6 14 16 9 10 359 344 345 353 357 1 5 8 12 17 20 19 16 15 22 21 18 24 24 16 16 23 22 17 13 11 11 9 9 9 8 7 6 5 2 357 351 348 346 345 344 343 343 344 343 344 345 345 344 342 341 342 343 340
176 176 175 177 180 182 187 190 186 174 156 138 122 106 92 91 92 75 56 56 49 35 35 38 32 16 8 12 12 7 4 348 339 344 350 352 354 1 7 14 18 20 20 15 13 19 20 17 22 23 18 19 21 18 16 13 12 12 11 10 9 7 5 5 4 1 357 352 349 347 346 346 345 344 343 342 342 342 343 343 342 340 340 342 341
180 180 180 185 187 182 179 186 195 183 155 148 150 138 125 116 103 88 77 69 60 56 61 58 48 45 36 16 2 358 349 336 336 344 347 346 350 358 9 18 19 20 20 14 10 15 17 14 17 19 17 17 18 15 12 10 10 10 9 9 9 6 5 6 3 358 356 354 351 349 348 348 346 345 344 342 340 340 340 341 341 340 340 341 340
185 184 184 190 191 185 182 188 197 192 171 168 171 161 151 155 155 126 102 91 81 77 77 70 56 55 54 6 345 348 343 336 339 346 349 349 354 2 16 28 26 21 19 15 12 11 9 10 17 19 15 15 16 12 8 7 8 8 6 7 8 5 5 5 1 356 355 354 352 350 350 348 346 345 345 342 340 340 340 340 340 339 340 340 338
187 188 190 193 191 189 192 194 194 198 189 178 176 172 166 170 178 177 156 131 114 100 86 73 58 47 37 12 356 355 351 345 345 350 354 357 3 12 25 37 37 30 20 12 11 11 8 8 14 16 12 12 14 10 6 6 6 4 3 5 5 3 4 4 360 356 354 353 352 352 351 349 345 344 343 341 340 339 340 341 341 339 339 340 339
188 190 192 195 191 190 196 198 195 199 199 187 183 182 177 176 179 183 188 188 174 155 141 107 65 47 37 27 13 2 353 348 350 356 0 4 11 21 24 23 27 31 27 15 5 7 10 10 11 12 10 9 10 9 6 5 4 2 1 3 1 1 3 2 358 356 354 353 351 352 351 348 345 343 342 341 340 340 340 341 341 340 339 339 339
191 191 193 193 189 189 197 202 199 200 205 203 196 191 184 182 183 188 195 202 203 196 196 208 212 52 33 28 23 10 1 358 0 2 5 9 14 19 18 10 4 18 29 24 11 5 8 9 7 8 9 7 6 6 5 4 2 0 1 1 358 356 358 358 356 355 355 353 352 351 349 347 345 344 342 342 341 340 339 339 339 340 340 339 337
193 195 195 192 187 189 198 206 203 202 208 210 207 207 202 189 182 185 193 200 208 216 217 214 211 210 15 18 18 10 5 7 12 12 13 18 17 13 15 17 15 12 16 18 14 6 3 3 5 8 8 6 5 4 3 3 1 359 360 359 355 354 355 355 355 355 355 353 352 351 349 347 346 345 342 341 341 339 338 339 340 340 340 338 336
195 198 199 195 189 188 197 206 207 206 209 210 207 209 214 201 184 184 192 198 207 220 224 216 207 202 204 15 19 13 8 11 19 22 25 28 25 21 21 22 21 15 5 7 12 7 0 0 6 9 7 5 3 3 2 1 359 357 357 355 353 354 355 355 354 354 354 353 352 350 348 347 346 345 342 340 339 338 336 337 339 340 339 337 335
196 198 201 199 193 189 195 202 207 208 208 209 207 207 210 209 201 201 208 210 211 218 217 207 199 198 201 187 38 13 5 12 21 22 28 32 27 21 16 10 5 5 7 11 14 7 359 360 6 8 5 2 2 2 2 359 356 355 355 353 352 354 355 354 353 353 353 353 350 348 347 346 345 344 342 339 338 337 335 335 336 337 337 336 332
196 197 200 199 197 197 198 201 206 209 206 205 206 206 207 208 207 212 224 224 217 205 189 181 183 199 208 195 109 10 351 349 340 338 2 25 24 14 2 350 349 359 6 8 7 3 358 1 6 6 2 1 2 2 360 357 354 352 352 351 351 352 352 352 352 353 353 351 349 347 345 343 342 342 341 339 337 336 336 336 335 333 333 333 332
196 198 198 197 197 200 203 205 207 207 202 200 202 204 207 209 210 216 226 227 221 205 179 179 188 202 207 198 169 357 336 322 305 295 303 331 348 353 348 342 348 360 2 1 1 360 357 359 3 4 1 360 2 1 357 354 352 350 350 349 349 349 351 352 353 353 350 348 347 346 343 341 341 342 340 337 336 335 335 336 334 333 333 333 333
198 200 201 197 195 197 202 206 206 199 196 198 201 204 210 213 210 212 218 222 220 213 203 201 201 191 176 170 166 165 319 307 295 289 301 322 329 338 339 340 349 360 360 356 354 355 357 358 359 0 359 357 359 358 354 351 350 349 349 350 349 350 352 352 351 349 347 345 344 343 341 340 340 340 338 336 334 333 333 333 333 333 332 331 330
197 200 202 199 194 193 197 203 202 195 194 199 203 206 213 215 212 212 217 223 224 215 208 214 210 172 165 172 181 182 338 303 289 291 308 317 317 321 324 334 345 350 353 352 350 351 356 355 352 354 355 352 352 352 350 349 351 349 349 351 351 350 351 351 348 345 343 342 341 339 339 340 340 339 336 334 332 331 330 329 330 331 330 327 327
194 198 201 199 194 191 194 201 202 197 195 199 203 207 210 210 209 213 219 223 224 218 211 213 199 177 180 195 218 266 320 294 270 267 268 262 274 289 303 319 328 331 339 346 345 345 346 346 347 349 345 339 340 344 347 350 351 350 350 351 351 350 349 348 345 341 339 338 339 338 337 339 340 337 333 331 330 329 329 328 328 329 328 326 327
193 195 197 196 192 190 193 199 201 198 195 197 201 206 208 205 204 209 216 220 220 216 214 208 193 187 193 205 222 259 303 289 238 233 242 239 244 265 286 293 300 306 318 329 333 332 334 341 344 338 332 331 334 338 344 349 349 348 349 349 347 349 349 344 339 337 336 336 337 338 337 337 335 331 330 330 329 328 328 328 328 329 329 328 329
193 194 195 194 193 192 194 197 198 197 196 196 198 202 205 204 202 204 210 215 217 217 214 200 188 192 199 203 213 252 295 265 212 219 228 222 227 251 264 261 262 264 293 321 319 300 309 333 337 325 325 329 327 328 337 346 346 346 347 345 345 347 345 338 334 334 335 335 336 336 335 334 330 327 328 330 329 328 327 327 328 329 329 328 329
192 192 193 193 193 194 195 196 198 199 197 196 195 198 202 204 203 202 205 208 210 213 215 207 192 192 199 204 210 236 258 221 207 216 221 215 223 238 235 237 255 261 274 301 292 272 287 319 320 312 320 324 318 322 334 342 341 341 343 343 342 340 333 328 329 332 334 336 335 332 330 329 328 326 325 327 328 326 323 324 327 328 327 327 330
192 190 190 190 192 194 195 196 199 199 197 194 193 194 198 202 204 205 207 210 208 205 208 211 201 190 192 204 218 225 219 207 206 214 220 220 225 230 225 227 241 248 261 283 269 259 280 304 305 301 312 313 309 319 334 341 341 343 342 333 324 317 316 320 325 329 335 338 334 329 327 326 325 323 323 326 327 322 317 319 325 327 327 328 330
192 190 188 188 190 192 193 194 195 196 195 192 191 192 195 199 204 207 210 211 209 204 203 209 209 198 192 198 208 210 206 203 207 216 220 218 216 215 213 218 230 243 261 274 262 263 281 297 299 293 293 298 307 325 343 344 342 345 333 310 300 305 315 321 325 332 339 340 332 328 327 324 320 321 325 329 327 321 316 320 326 327 327 329 330
194 190 189 188 189 190 191 192 191 191 191 190 190 192 195 198 201 206 209 209 207 205 203 206 213 214 208 206 207 208 205 205 210 217 217 215 215 217 218 221 229 243 260 265 259 265 276 280 275 275 285 297 310 324 328 324 335 343 308 294 297 310 321 326 331 338 342 338 331 330 328 323 320 326 332 331 326 322 320 323 327 328 328 329 328
195 193 190 189 189 190 189 189 188 188 189 190 191 194 196 196 196 201 207 205 201 200 203 207 211 217 217 213 210 209 206 205 209 214 213 214 219 222 220 218 218 226 246 258 258 260 262 258 258 266 277 287 297 302 303 310 323 300 271 281 295 312 321 326 333 340 341 338 336 335 330 324 324 330 333 329 324 322 323 325 326 328 328 327 325
196 195 193 190 190 190 189 188 187 187 187 189 193 195 197 197 196 198 201 200 194 194 202 208 212 217 219 213 206 204 203 203 207 210 212 215 218 217 215 213 216 226 243 253 251 253 258 259 261 264 264 262 269 287 303 298 270 246 256 275 295 310 318 325 334 339 339 340 340 337 332 329 330 331 330 326 322 321 324 325 327 328 328 326 324
197 197 195 191 190 190 188 187 187 187 188 191 192 193 195 199 200 197 196 194 191 192 198 205 210 213 214 209 203 202 202 202 205 209 212 213 212 210 210 212 217 227 238 240 242 251 257 257 260 262 257 254 263 280 282 266 255 256 268 283 298 309 317 327 335 337 337 338 339 338 338 335 330 325 322 321 322 323 325 327 328 328 327 325 325
198 197 194 192 190 188 185 184 185 187 190 192 191 189 193 200 203 198 194 193 192 192 195 200 206 208 208 205 202 200 200 201 205 207 207 207 207 207 209 211 214 221 228 233 243 253 251 249 255 257 251 251 261 263 258 258 262 269 281 292 301 310 321 330 333 334 335 336 337 341 342 331 320 318 319 321 323 325 326 327 328 327 325 325 326